Retour au catalogue

COSMOS 2251 DEB

LostLEO
NORAD 37539·DEBRIS·🇷🇺 Russia

Lancé Jun 16, 1993 depuis Plesetsk Cosmodrome

Loading…

Prochains Passages (prochaines 24 heures)

TLE

PériméSource: Space-Track

Époque: Sep 19, 2011, 04:40 UTC

1 37539U 93036BNU 11262.19479144  .00000786  00000-0  29032-3 0  9999
2 37539  74.0515  81.9073 0021619 352.5149   7.5676 14.33973190 78115

Suivez COSMOS 2251 DEB en temps réel avec AllMySat

Download on the App Store